Location: Molveno
(46.1500°N, 10.9667°E)
Time: 07:02:58
(UTC+00:00)

Cosmos 1452 Rocket - Pass Details

Date: 05 July 2020
Orbit: 768 x 774 km, 74.1° (Epoch: 05 August)

Event Time Altitude Azimuth Distance (km) Brightness Sun altitude
Rises 23:26:03 0° 336° (NNW) 3,256 7.9 -21.2°
Reaches altitude 10° 23:28:27 10° 334° (NNW) 2,323 6.9 -21.2°
Maximum altitude 23:33:41 69° 252° (WSW) 826 3.5 -21.1°
Enters shadow 23:35:05 47° 188° (S) 1,010 3.6 -21.1°
